Flag for Switzerland Weather past 2 weeks in Einsiedeln, Schwyz, Switzerland

Now
56 °F

Overcast.


Feels Like: 56 °F
Forecast: 39 / 55 °F
Wind: 2 mph from North

Location: Altdorf

Current Time: May 26, 2015 at 2:54:23 PM

Latest Report: May 26, 2015 at 2:00 PM


Visibility: 13 mi

Pressure: 30.04 "Hg

Humidity: 70%

Dew point: 46 °F

Location of EinsiedelnLocation

Historic Weather in Einsiedeln — Graph

°F

Einsiedeln temperature yesterday

Maximum temperature yesterday: 64 °F (at 3:00 PM)
Minimum temperature yesterday: 53 °F (at 6:40 AM)
Average temperature yesterday: 57 °F

Past Weeks' High & Low Weather Summary

 TemperatureHumidityPressure
High79 °F (May 13, 5:00 PM)94% (May 25, 6:40 AM)30.34 "Hg (May 25, 6:40 AM)
Low42 °F (May 15, 5:00 PM)32% (May 14, 1:00 AM)29.72 "Hg (May 18, 6:00 PM)
Average56 °F75%30.06 "Hg
* Reported May 11 1:00 PM — May 26 1:00 PM, Einsiedeln, Weather by CustomWeather, © 2015

Note: Actual official high and low records may vary slightly from our data, if they occured in-between our weather recording intervals... More about our weather records

Advertising

Einsiedeln weather history for previous 24 hours

 ConditionsComfort  
Time TempWeatherWind HumidityBarometerVisibility
1:00 PM
Tue, May 26
55 °FCool.3 mph78%30.06 "HgN/A
12:00 PM52 °FCool.5 mph84%30.08 "HgN/A
11:00 AM53 °FDrizzle. Low clouds.3 mph85%30.06 "Hg9 mi
10:00 AM52 °FCool.3 mph91%30.06 "HgN/A
9:00 AM51 °FCool.2 mph89%30.04 "HgN/A
8:00 AM51 °FRain. Low clouds.1 mph91%30.02 "Hg4 mi
7:00 AM51 °FCool.2 mph94%30.00 "HgN/A
6:00 AM50 °FCool.1 mph94%29.99 "HgN/A
5:00 AM50 °FDrizzle. Overcast.2 mph94%30.00 "Hg6 mi
4:00 AM50 °FCool.2 mph94%30.00 "HgN/A
3:00 AM50 °FCool.1 mph94%30.00 "HgN/A
2:00 AM51 °FDrizzle. Overcast.3 mph94%30.01 "Hg6 mi
1:00 AM51 °FCool.3 mph89%30.01 "HgN/A
12:00 AM51 °FCool.3 mph79%30.02 "HgN/A
10:00 PM
Mon, May 25
54 °FCool.2 mph91%30.00 "HgN/A
9:00 PM55 °FCool.3 mph94%29.97 "HgN/A
8:00 PM55 °FLight rain. Overcast.1 mph93%29.96 "Hg4 mi
7:00 PM57 °FCool.1 mph86%29.95 "HgN/A
6:00 PM59 °FCool.7 mph73%29.93 "HgN/A
5:00 PM61 °FLight rain. Overcast.15 mph62%29.92 "Hg9 mi
4:00 PM63 °FMild.3 mph57%29.91 "HgN/A
3:00 PM64 °FMild.5 mph65%29.91 "HgN/A
2:00 PM63 °FOvercast.2 mph63%29.94 "Hg12 mi
Weather by CustomWeather, © 2015

See weather overviewHow to use our weather pages